[[{"header":{"parameterUnit":"m.s-1","parameterCategory":1,"la1":30.2991,"la2":30.254,"lo1":-89.0895,"lo2":-89.0444,"dy":0.0017,"dx":0.0017,"nx":28,"ny":28,"refTime":"2024-05-23T03:00:00:Z","depth":0,"parameterNumber":2,"parameterNumberName":"U-component_of_WINDS"},"data":[0,0,0,0,0,0,0,0,0,0,0,0,0,0,0,0,0,0,0,0,0,0,0,0,0,0,0,0,0,0,0,0,0,0,0,0,0,0,0,0,0,0,0,0,0,0,0,0,0,0,0,0,0,0,0,0,0,0,-3.1515,-3.1514,0,-3.1444,-3.1443,-3.1442,-3.1356,-3.1354,-3.1353,-3.1352,-3.1275,-3.1274,-3.1273,0,0,0,0,0,0,0,0,0,0,0,0,0,-3.1573,-3.1573,-3.1515,-3.1514,-3.1513,-3.1444,-3.1443,-3.1442,-3.1356,-3.1354,-3.1353,-3.1351,-3.1275,-3.1274,-3.1273,0,0,0,0,0,0,0,0,0,0,0,0,0,-3.153,-3.1573,-3.1515,-3.1462,-3.1456,-3.1444,-3.1443,-3.1441,-3.1356,-3.1354,-3.1352,-3.135,-3.1275,-3.1274,-3.1273,-3.1306,0,0,-3.1269,-3.1269,0,0,0,0,0,0,0,0,-3.1532,-3.1527,-3.1471,-3.1466,-3.1459,-3.1406,-3.1435,-3.1396,-3.1357,-3.1394,-3.1352,-3.1349,-3.132,-3.1315,-3.1306,-3.1302,-3.1299,-3.1269,-3.1269,-3.1268,-3.1268,0,0,0,0,0,0,0,-3.1535,-3.153,-3.1486,-3.147,-3.1463,-3.1441,-3.1432,-3.1427,-3.1369,-3.1391,-3.1384,-3.1377,-3.1317,-3.1307,-3.1303,-3.1298,-3.1269,-3.1268,-3.1268,-3.1267,-3.1315,-3.1317,0,0,0,0,0,0,-3.1547,-3.1533,-3.1489,-3.1484,-3.1492,-3.1441,-3.1432,-3.1425,-3.1369,-3.1358,-3.1379,-3.1373,-3.131,-3.1305,-3.13,-3.1333,-3.1268,-3.1267,-3.1266,-3.1313,-3.1315,-3.1317,0,0,0,0,0,0,-3.1548,-3.1544,-3.1492,-3.1507,-3.1499,-3.1442,-3.1436,-3.1425,-3.1416,-3.136,-3.1349,-3.138,-3.1309,-3.1302,-3.1305,-3.1329,-3.1266,-3.1265,-3.1311,-3.1314,-3.1316,-3.14,0,0,0,0,0,0,-3.155,-3.1545,-3.1557,-3.1508,-3.1498,-3.1499,-3.1437,-3.1425,-3.1414,-3.1406,-3.1358,-3.1349,-3.1306,-3.1307,-3.1304,-3.1326,-3.1264,-3.1308,-3.1312,-3.1315,-3.1395,-3.1406,-3.1415,0,0,0,0,0,-3.1553,-3.1583,-3.1558,-3.1554,-3.1513,-3.15,-3.1494,-3.1447,-3.1417,-3.1428,-3.1392,-3.135,-3.1328,-3.1308,-3.1304,-3.1326,-3.1306,-3.1311,-3.1315,-3.139,-3.1403,-3.1415,0,0,0,0,0,0,-3.1636,-3.1576,-3.1548,-3.1563,-3.1538,-3.1486,-3.1499,-3.1462,-3.1443,-3.1437,-3.1377,-3.1367,-3.1376,-3.1352,-3.1331,-3.1354,-3.1311,-3.1314,-3.1369,-3.1381,-3.1391,-3.1396,-3.1263,0,0,0,0,0,-3.1656,-3.1652,-3.1599,-3.1618,-3.1607,-3.1556,-3.1548,-3.1514,-3.1484,-3.1472,-3.1437,-3.1409,-3.1395,-3.1387,-3.1372,-3.1392,-3.1378,-3.1405,-3.1415,-3.1423,-3.1427,-3.1433,-3.1444,-3.1332,-3.1332,-3.1332,0,0,-3.1698,-3.1665,-3.1665,-3.1634,-3.161,-3.1606,-3.1547,-3.1545,-3.154,-3.1472,-3.1472,-3.1445,-3.1409,-3.1421,-3.1424,-3.14,-3.1455,-3.1429,-3.1436,-3.1435,-3.1439,-3.1449,-3.1459,-3.1335,-3.1335,-3.1334,0,0,-3.1771,-3.1746,-3.1758,-3.1736,-3.1701,-3.1666,-3.167,-3.1623,-3.1603,-3.1603,-3.155,-3.1544,-3.1522,-3.1499,-3.1484,-3.1548,-3.1508,-3.1545,-3.1596,-3.1603,-3.1612,-3.1619,-3.164,-3.1649,-3.1549,-3.1549,-3.1549,0,-3.1826,-3.1818,-3.1769,-3.177,-3.1757,-3.1697,-3.1707,-3.1688,-3.1649,-3.1641,-3.1616,-3.1587,-3.1559,-3.1563,-3.1578,-3.1569,-3.1569,-3.1549,-3.1615,-3.1622,-3.1628,-3.1647,-3.1655,-3.1554,-3.1553,-3.1553,-3.1552,0,-3.1888,-3.1883,-3.1897,-3.1862,-3.1851,-3.1858,-3.1808,-3.1802,-3.1769,-3.1737,-3.1736,-3.1701,-3.1676,-3.1675,-3.1642,-3.1674,-3.166,-3.1627,-3.1581,-3.1644,-3.1661,-3.1668,-3.156,-3.1559,-3.1557,-3.1556,0,0,-3.2009,-3.1948,-3.1953,-3.1936,-3.1893,-3.1888,-3.1891,-3.1869,-3.1864,-3.184,-3.1839,-3.1823,-3.1791,-3.1774,-3.1738,-3.1745,-3.1795,-3.1709,-3.1707,-3.1725,-3.1825,-3.185,-3.1859,-3.177,-3.1771,-3.1772,-3.1828,0,-3.2072,-3.2075,-3.203,-3.2045,-3.2039,-3.1981,-3.1983,-3.1957,-3.1927,-3.1917,-3.1883,-3.1871,-3.1831,-3.1821,-3.1825,-3.1789,-3.1814,-3.1784,-3.1766,-3.1766,-3.1774,-3.1868,-3.1894,-3.1949,-3.1834,-3.1835,-3.1836,0,-3.2146,-3.2127,-3.2141,-3.2097,-3.2092,-3.2096,-3.2071,-3.2062,-3.203,-3.2008,-3.199,-3.1949,-3.1947,-3.1906,-3.1901,-3.1882,-3.1872,-3.1853,-3.1854,-3.1848,-3.1803,-3.1863,-3.1965,-3.1972,-3.1846,-3.1845,-3.1845,0,-3.223,-3.2208,-3.2213,-3.2201,-3.215,-3.2153,-3.2132,-3.2098,-3.2087,-3.2065,-3.2057,-3.2035,-3.2022,-3.2005,-3.1959,-3.1934,-3.1958,-3.1914,-3.1938,-3.1939,-3.1944,-3.1943,-3.2043,-3.1942,-3.1941,-3.1941,-3.1941,0,-3.2304,-3.2314,-3.225,-3.2253,-3.2263,-3.2212,-3.2222,-3.2194,-3.2165,-3.216,-3.2109,-3.2106,-3.2046,-3.2035,-3.1999,-3.1999,-3.1994,-3.1974,-3.1964,-3.1977,-3.198,-3.1968,-3.1962,-3.1943,-3.1943,-3.1943,-3.1942,0,-3.2399,-3.2357,-3.2358,-3.2311,-3.2299,-3.2308,-3.2266,-3.2266,-3.2234,-3.2228,-3.2224,-3.2172,-3.2157,-3.211,-3.2082,-3.2057,-3.2067,-3.205,-3.2079,-3.2072,-3.2097,-3.2094,-3.2191,-3.22,-3.2095,-3.2096,-3.2097,0,-3.2448,-3.2455,-3.2408,-3.2402,-3.2383,-3.2374,-3.2363,-3.2313,-3.2303,-3.2267,-3.2271,-3.2252,-3.2233,-3.2211,-3.2169,-3.2148,-3.2127,-3.2163,-3.2123,-3.2136,-3.2125,-3.2124,-3.2124,-3.2171,-3.2172,-3.2173,-3.2174,0,-3.2538,-3.2517,-3.2504,-3.2483,-3.2472,-3.2453,-3.243,-3.2428,-3.2371,-3.2363,-3.2347,-3.2333,-3.2305,-3.2286,-3.2257,-3.2233,-3.2193,-3.2187,-3.2191,-3.2204,-3.2219,-3.2209,-3.2099,-3.2185,-3.2183,-3.2183,-3.2182,-3.2182,-3.261,-3.2613,-3.258,-3.2567,-3.2545,-3.2526,-3.2523,-3.2491,-3.2477,-3.2451,-3.2423,-3.241,-3.2376,-3.2334,-3.2313,-3.2301,-3.228,-3.2286,-3.2287,-3.2289,-3.2294,-3.2224,-3.2296,-3.2295,-3.2295,-3.2295,-3.2294,0,-3.2696,-3.2672,-3.2661,-3.2632,-3.2621,-3.2587,-3.2561,-3.2553,-3.2543,-3.2516,-3.2499,-3.248,-3.2461,-3.2419,-3.2396,-3.2394,-3.2375,-3.2389,-3.2387,-3.2382,-3.2315,-3.2313,-3.2405,-3.2405,-3.2405,-3.2405,-3.2405,-3.2405,-3.2739,-3.2741,-3.2717,-3.2707,-3.2683,-3.2671,-3.2659,-3.264,-3.2618,-3.26,-3.2584,-3.2558,-3.2524,-3.2497,-3.2478,-3.2466,-3.2458,-3.2478,-3.246,-3.2398,-3.2387,-3.2377,-3.2375,-3.2477,-3.2477,-3.2527,-3.2527,-3.2528]},{"header":{"parameterUnit":"m.s-1","parameterCategory":1,"la1":30.2991,"la2":30.254,"lo1":-89.0895,"lo2":-89.0444,"dy":0.0017,"dx":0.0017,"nx":28,"ny":28,"refTime":"2024-05-23T03:00:00:Z","depth":0,"parameterNumber":3,"parameterNumberName":"V-component_of_WINDS"},"data":[0,0,0,0,0,0,0,0,0,0,0,0,0,0,0,0,0,0,0,0,0,0,0,0,0,0,0,0,0,0,0,0,0,0,0,0,0,0,0,0,0,0,0,0,0,0,0,0,0,0,0,0,0,0,0,0,0,0,3.4768,3.4769,0,3.4816,3.4817,3.4817,3.4785,3.4784,3.4782,3.4781,3.4828,3.483,3.4833,0,0,0,0,0,0,0,0,0,0,0,0,0,3.4645,3.4647,3.4768,3.4769,3.4769,3.4816,3.4817,3.4817,3.4785,3.4783,3.4782,3.478,3.4827,3.483,3.4833,0,0,0,0,0,0,0,0,0,0,0,0,0,3.4696,3.4648,3.4768,3.4759,3.4759,3.4816,3.4817,3.4818,3.4786,3.4783,3.4781,3.4779,3.4826,3.483,3.4834,3.4902,0,0,3.4846,3.4847,0,0,0,0,0,0,0,0,3.4693,3.4701,3.476,3.476,3.476,3.4792,3.4791,3.4846,3.4786,3.4775,3.4781,3.4778,3.4818,3.4822,3.4836,3.4904,3.4906,3.4846,3.4848,3.485,3.4851,0,0,0,0,0,0,0,3.469,3.4698,3.4787,3.4761,3.4761,3.4751,3.4756,3.4801,3.4808,3.4776,3.4774,3.478,3.4817,3.4832,3.4837,3.4907,3.4846,3.4849,3.4852,3.4853,3.5029,3.5032,0,0,0,0,0,0,3.4687,3.4696,3.4786,3.4789,3.472,3.4755,3.4761,3.4784,3.4808,3.4809,3.4782,3.4778,3.4827,3.4832,3.4838,3.4917,3.485,3.4854,3.4856,3.5027,3.503,3.5033,0,0,0,0,0,0,3.4685,3.4696,3.4784,3.4742,3.4752,3.476,3.4786,3.4786,3.4801,3.4812,3.4813,3.4796,3.4825,3.4833,3.4886,3.4918,3.4855,3.4859,3.5024,3.5028,3.5031,3.5077,0,0,0,0,0,0,3.4682,3.4695,3.4722,3.4743,3.4755,3.4832,3.4788,3.4789,3.4808,3.4804,3.4826,3.4827,3.4824,3.488,3.489,3.4922,3.4862,3.5021,3.5026,3.503,3.5072,3.5081,3.5089,0,0,0,0,0,3.4677,3.4734,3.4724,3.4735,3.4789,3.4834,3.484,3.4836,3.4811,3.4837,3.4844,3.4826,3.4914,3.4886,3.4896,3.4931,3.5019,3.5025,3.503,3.5068,3.5079,3.5089,0,0,0,0,0,0,3.4717,3.4736,3.4726,3.479,3.481,3.4828,3.4861,3.4848,3.4876,3.4871,3.4864,3.4869,3.4923,3.4933,3.4901,3.4996,3.4962,3.497,3.4988,3.4999,3.5007,3.5002,3.4865,0,0,0,0,0,3.4733,3.4769,3.4784,3.4839,3.485,3.4854,3.4873,3.4868,3.4889,3.4897,3.4907,3.4927,3.4958,3.4979,3.5009,3.5074,3.5076,3.5103,3.5111,3.5118,3.5124,3.5155,3.5166,3.505,3.505,3.505,0,0,3.4767,3.4782,3.4805,3.4847,3.4862,3.4898,3.4861,3.4901,3.4927,3.4903,3.4952,3.4961,3.4982,3.504,3.5067,3.505,3.5157,3.5124,3.513,3.5132,3.5162,3.5173,3.5182,3.5053,3.5053,3.5052,0,0,3.4847,3.4863,3.4909,3.4925,3.4948,3.495,3.4961,3.498,3.4984,3.5034,3.5016,3.5046,3.5102,3.5116,3.5131,3.5214,3.5197,3.5224,3.5267,3.5297,3.5306,3.5314,3.5341,3.5351,3.523,3.523,3.523,0,3.4886,3.4939,3.4935,3.4975,3.4993,3.4973,3.5018,3.5033,3.5065,3.5077,3.5058,3.5125,3.5138,3.5197,3.5217,3.5231,3.5242,3.522,3.5306,3.5314,3.5321,3.5346,3.5357,3.5233,3.5233,3.5232,3.5232,0,3.4984,3.5022,3.5056,3.5086,3.5108,3.5151,3.5151,3.5174,3.5166,3.517,3.5219,3.5234,3.5265,3.5279,3.5273,3.5337,3.5326,3.5307,3.5272,3.5335,3.5358,3.5368,3.5237,3.5236,3.5235,3.5234,0,0,3.5091,3.5116,3.5129,3.5141,3.5164,3.5192,3.5232,3.5263,3.5281,3.5303,3.5335,3.5381,3.5363,3.538,3.5374,3.5402,3.5462,3.5379,3.5379,3.5391,3.553,3.5543,3.5554,3.5452,3.5454,3.5456,3.5528,0,3.5169,3.524,3.5236,3.5303,3.5335,3.5315,3.535,3.5367,3.5371,3.5398,3.5402,3.5434,3.5409,3.5418,3.5445,3.5449,3.549,3.5444,3.548,3.5481,3.5473,3.5567,3.5581,3.5648,3.5537,3.5539,3.554,0,3.527,3.5295,3.5364,3.5379,3.5393,3.5424,3.545,3.5477,3.5495,3.5495,3.5513,3.5503,3.5542,3.5508,3.556,3.5529,3.5543,3.5548,3.555,3.5551,3.5513,3.5568,3.567,3.5679,3.5555,3.5554,3.5552,0,3.5337,3.5387,3.5434,3.5446,3.5465,3.5487,3.5497,3.5512,3.553,3.5552,3.5563,3.559,3.5604,3.5624,3.5621,3.5597,3.5673,3.5639,3.5672,3.5672,3.5688,3.5686,3.579,3.5701,3.5701,3.5701,3.5701,0,3.5424,3.5466,3.5464,3.5493,3.5539,3.5533,3.5578,3.5585,3.5598,3.5627,3.5612,3.5639,3.5634,3.566,3.5657,3.5699,3.5706,3.5706,3.5705,3.5706,3.5706,3.5714,3.5708,3.5704,3.5703,3.5703,3.5702,0,3.5505,3.5506,3.5556,3.5569,3.5574,3.5607,3.5618,3.5644,3.5646,3.5682,3.569,3.5693,3.5723,3.5722,3.5756,3.5754,3.5804,3.5799,3.5798,3.5796,3.5828,3.5824,3.5939,3.5953,3.5857,3.5858,3.5859,0,3.556,3.5591,3.5608,3.5626,3.5636,3.5665,3.5682,3.5677,3.5696,3.5717,3.574,3.5768,3.579,3.5838,3.5843,3.5868,3.5861,3.59,3.5865,3.5864,3.5858,3.5855,3.5857,3.5906,3.5907,3.5908,3.5908,0,3.5655,3.5653,3.5678,3.5703,3.5724,3.5744,3.5762,3.5777,3.5773,3.5794,3.5824,3.5841,3.5875,3.5902,3.5926,3.5934,3.592,3.592,3.5928,3.5929,3.5926,3.5925,3.5814,3.5917,3.5916,3.5915,3.5915,3.5914,3.5722,3.5748,3.5763,3.5791,3.5804,3.582,3.5845,3.5849,3.5874,3.5901,3.5896,3.5929,3.5943,3.5973,3.5983,3.6008,3.5994,3.6007,3.601,3.6013,3.6015,3.5924,3.6012,3.6012,3.6012,3.6012,3.6012,0,3.5814,3.5822,3.5848,3.5873,3.5894,3.5879,3.5898,3.5916,3.5945,3.596,3.5981,3.6014,3.604,3.6046,3.607,3.6089,3.6083,3.6095,3.6092,3.6094,3.6027,3.6016,3.6099,3.6099,3.6099,3.6099,3.6099,3.6099,3.5864,3.5906,3.5906,3.5953,3.5961,3.5992,3.6004,3.6018,3.6029,3.6066,3.6087,3.6091,3.6101,3.6126,3.6148,3.6149,3.6158,3.6172,3.617,3.6108,3.6099,3.609,3.608,3.6175,3.6175,3.6234,3.6235,3.6235]}]]